Weather History for New Philadelphia, OH

Change the Weather History Date:

Thursday, February 7, 2013

  Actual Average Record
Temperature  
Mean Temperature 30 °F 30 °F  
Max Temperature 46 °F 39 °F 55 °F (2005)
Min Temperature 14 °F 21 °F -6 °F (1979)
Degree Days  
Heating Degree Days 35 35  
Month to date heating degree days 293 245  
Since 1 July heating degree days 3438 3517  
Cooling Degree Days 0 0  
Month to date cooling degree days 0 0  
Year to date cooling degree days 0 0  
Moisture  
Dew Point 21 °F    
Average Humidity 67    
Maximum Humidity 88    
Minimum Humidity 45    
Precipitation  
Precipitation 0.00 in 0.09 in 0.84 in (1974)
Month to date precipitation 0.22 0.54  
Year to date precipitation 1.72 3.14  
Sea Level Pressure  
Sea Level Pressure 30.16 in    
Wind  
Wind Speed 5 mph (SE)    
Max Wind Speed 12 mph    
Max Gust Speed 16 mph    
Visibility 9 miles    
Events      
T = Trace of Precipitation, MM = Missing Value Source: NWS Daily Summary

Daily Weather History Graph

Daily Weather History Graph

Search for Another Location

Airport:

Trip Planner

Search our weather history database for the weather conditions in past years. The results will help you decide how hot, cold, wet, or windy it might be!

Date:

Astronomy

Feb. 07, 2013 Rise Set
Actual Time 7:28 AM EST 5:51 PM EST
Civil Twilight 7:00 AM EST 6:20 PM EST
Nautical Twilight 6:27 AM EST 6:52 PM EST
Astronomical Twilight 5:56 AM EST 7:24 PM EST
Moon 5:07 AM EST (2/7) 3:14 PM EST (2/7)
Length of Visible Light 11h 19m
Length of Day
10h 22m
Waning Crescent, 9% of the Moon is Illuminated
Feb 7
Waning Crescent
Feb 10
New
Feb 17
First Quarter
Feb 25
Full
Mar 4
Last Quarter

Hourly Weather History & Observations

Time (EST) Temp. Windchill Dew Point Humidity Pressure Visibility Wind Dir Wind Speed Gust Speed Precip Events Conditions
12:53 AM 14.0 °F 8.2 °F 10.0 °F 84% 30.32 in 9.0 mi ESE 3.5 mph - N/A   Clear
1:53 AM 17.1 °F 11.7 °F 12.0 °F 81% 30.30 in 8.0 mi ESE 3.5 mph - N/A   Clear
2:53 AM 17.1 °F - 12.0 °F 81% 30.30 in 8.0 mi Calm Calm - N/A   Clear
3:53 AM 18.0 °F - 14.0 °F 84% 30.30 in 5.0 mi Calm Calm - N/A   Clear
4:53 AM 19.0 °F - 14.0 °F 81% 30.31 in 6.0 mi Calm Calm - N/A   Haze
5:53 AM 21.9 °F - 17.1 °F 82% 30.30 in 7.0 mi Calm Calm - N/A   Overcast
6:53 AM 24.1 °F - 18.0 °F 77% 30.28 in 9.0 mi Calm Calm - N/A   Overcast
7:53 AM 26.1 °F - 18.0 °F 71% 30.29 in 8.0 mi Calm Calm - N/A   Overcast
8:53 AM 27.0 °F - 19.0 °F 72% 30.29 in 7.0 mi Calm Calm - N/A   Mostly Cloudy
9:53 AM 28.9 °F 22.8 °F 19.9 °F 69% 30.27 in 10.0 mi East 5.8 mph - N/A   Clear
10:53 AM 33.1 °F 26.9 °F 21.9 °F 64% 30.25 in 10.0 mi East 6.9 mph - N/A   Clear
11:53 AM 36.0 °F 30.3 °F 23.0 °F 59% 30.21 in 10.0 mi ESE 6.9 mph - N/A   Clear
12:53 PM 37.9 °F 32.1 °F 24.1 °F 57% 30.17 in 10.0 mi SE 8.1 mph - N/A   Clear
1:53 PM 42.1 °F 37.7 °F 25.0 °F 51% 30.12 in 10.0 mi SE 6.9 mph - N/A   Clear
2:53 PM 44.1 °F 40.8 °F 25.0 °F 47% 30.09 in 10.0 mi SE 5.8 mph - N/A   Clear
3:53 PM 45.0 °F 41.2 °F 25.0 °F 46% 30.08 in 10.0 mi SE 6.9 mph - N/A   Clear
4:53 PM 44.1 °F 40.8 °F 26.1 °F 49% 30.05 in 10.0 mi SE 5.8 mph - N/A   Partly Cloudy
5:53 PM 41.0 °F 36.4 °F 26.1 °F 55% 30.04 in 10.0 mi SE 6.9 mph - N/A   Clear
6:53 PM 39.9 °F 33.9 °F 27.0 °F 60% 30.04 in 10.0 mi ESE 9.2 mph - N/A   Clear
7:53 PM 39.0 °F 32.8 °F 26.1 °F 60% 30.01 in 10.0 mi SE 9.2 mph - N/A   Clear
8:53 PM 37.9 °F 32.1 °F 27.0 °F 65% 29.99 in 10.0 mi SE 8.1 mph - N/A   Clear
9:53 PM 37.0 °F 32.4 °F 27.0 °F 67% 29.96 in 10.0 mi SE 5.8 mph - N/A   Clear
10:53 PM 36.0 °F 31.1 °F 27.0 °F 70% 29.96 in 10.0 mi SE 5.8 mph - N/A   Clear
11:53 PM 36.0 °F 31.1 °F 27.0 °F 70% 29.92 in 10.0 mi SE 5.8 mph - N/A   Clear